Location: ??????
(55.0357°N, 38.6195°E)
Time: 03:31:25
(UTC+00:00)

Cosmos 972 Rocket - Pass Details

Date: 14 April 2024
Orbit: 713 x 1150 km, 75.8° (Epoch: 20 May)

Event Time Altitude Azimuth Distance (km) Brightness Sun altitude
Exits shadow 00:07:54 29° 214° (SW) 1,460 4.9 -17.1°
Maximum altitude 00:10:46 75° 295° (WNW) 812 4.0 -16.8°
Drops below altitude 10° 00:15:50 10° 22° (NNE) 2,260 7.5 -16.3°
Sets 00:18:07 0° 24° (NNE) 3,159 8.6 -16.1°
